Regional Weather Roundup
Issued by NWS

Home | Current Version | Previous Version | Text Only | Print | Product List | Glossary Off
Versions: 1 2 3 4 5 6 7 8 9 10 11 12 13 14 15 16 17 18 19 20 21 22 23 24 25 26 27 28 29 30 31 32 33 34 35 36 37 38 39 40 41 42 43 44 45 46 47 48 49 50

000
ASUS43 KOAX 232310
RWRNE

WEATHER ROUNDUP FOR NEBRASKA
NATIONAL WEATHER SERVICE OMAHA NE
600 PM CDT MON APR 23 2018

NOTES: SATELLITE DATA IS BEING USED TO AUGMENT CLOUD COVER ABOVE
       12000 FEET.
       "FAIR" INDICATES FEW OR NO CLOUDS BELOW 12,000 FEET WITH NO
       SIGNIFICANT WEATHER AND/OR OBSTRUCTIONS TO VISIBILITY.


NEZ001>004-019>022-054>056-240000-
NEBRASKA PANHANDLE

CITY           SKY/WX    TMP DP  RH WIND       PRES   REMARKS
SCOTTSBLUFF    PTSUNNY   67  44  43 S8        29.99R
ALLIANCE       PTSUNNY   65  41  41 SE17      29.99F
CHADRON        CLOUDY    66  41  40 SW9       30.00R
GORDON         FAIR      67  38  34 S14       30.01S
KIMBALL        CLOUDY    64  38  37 S9        30.03R
SIDNEY         PTSUNNY   68  40  35 S13       30.01F
$$

NEZ057>060-069>072-079>082-240000-
SOUTHWEST NEBRASKA

CITY           SKY/WX    TMP DP  RH WIND       PRES   REMARKS
NORTH PLATTE   MOSUNNY   68  42  38 S14G22    30.04S
IMPERIAL       PTSUNNY   68  37  32 SE12      30.02S
LEXINGTON      MOSUNNY   68  38  32 S10       30.05S
MCCOOK         MOSUNNY   67  40  37 S13       30.03F
OGALLALA       MOSUNNY   69  38  32 SE14      30.02F
$$

NEZ005>010-023>029-035>040-094-240000-
NORTH CENTRAL NEBRASKA

CITY           SKY/WX    TMP DP  RH WIND       PRES   REMARKS
VALENTINE      MOSUNNY   70  39  32 S17G25    30.04S
AINSWORTH      MOSUNNY   66  38  36 S13       30.04F
BROKEN BOW     MOSUNNY   67  40  37 S13G20    30.06S
O`NEILL        MOSUNNY   70  34  26 SE8       30.07F
ORD            MOSUNNY   68  36  30 E9        30.05F
THEDFORD       MOSUNNY   69  40  35 S16       30.05S
$$

NEZ041-046>049-061>064-073>077-083>087-240000-
SOUTH CENTRAL NEBRASKA

CITY           SKY/WX    TMP DP  RH WIND       PRES   REMARKS
GRAND ISLAND   MOSUNNY   70  39  32 SE5G17    30.06F
AURORA         SUNNY     71  34  26 E3        30.06S
HASTINGS       SUNNY     69  39  33 SE9       30.06F
HEBRON         SUNNY     73  31  21 E6        30.05S
HOLDREGE       SUNNY     68  40  36 SW6       30.06S
KEARNEY        SUNNY     68  38  33 S7        30.06F
YORK             N/A     72  34  25 E3        30.06F
$$

NEZ011>018-030>034-042>045-240000-
NORTHEAST NEBRASKA

CITY           SKY/WX    TMP DP  RH WIND       PRES   REMARKS
NORFOLK        SUNNY     72  31  22 VRB6      30.06F
ALBION         SUNNY     71  36  28 SE7       30.07S
BLAIR          SUNNY     73  31  21 E6        30.07S
COLUMBUS       SUNNY     71  34  25 CALM      30.07F
FREMONT        SUNNY     73  28  18 CALM      30.07F
TEKAMAH          N/A     73  27  18 VRB5      30.06F
WAYNE          SUNNY     71  28  19 CALM      30.07F
$$

NEZ050>053-065>068-078-088>093-240000-
SOUTHEAST NEBRASKA

CITY           SKY/WX    TMP DP  RH WIND       PRES   REMARKS
LINCOLN        SUNNY     74  29  19 NE7       30.07F
OMAHA EPPLEY   MOSUNNY   75  28  17 NE7       30.06S
BEATRICE       SUNNY     74  32  21 CALM      30.05F
FALLS CITY     SUNNY     74  28  18 NE9       30.03F
NEBRASKA CITY  SUNNY     73  32  22 CALM      30.05S
PLATTSMOUTH    SUNNY     74  28  17 NE3       30.06S
$$

NEZ044-045-051>053-067-240000-
OMAHA AREA

CITY           SKY/WX    TMP DP  RH WIND       PRES   REMARKS
OMAHA EPPLEY   MOSUNNY   75  28  17 NE7       30.06S
BLAIR          SUNNY     73  31  21 E6        30.07S
FREMONT        SUNNY     73  28  18 CALM      30.07F
MILLARD        SUNNY     74  33  21 CALM      30.06F
PLATTSMOUTH    SUNNY     74  28  17 NE3       30.06S
WAHOO          FAIR      73  18  12 CALM      30.07S
$$




USA.gov is the U.S. government's official web portal to all federal, state and local government web resources and services.